This is the latest recevied weather packets stored in our database for station/object ED1ZAI-13. If no packets are shown the sender has not sent any weather packets the latest 10 day(s).
| Time | Temp. | Humidity | Pressure | Rain* | Wind** | Luminosity | Snow |
|---|---|---|---|---|---|---|---|
| 1788583932 | 21.11° C | 35% | 1024.3 hPa | - | - | - | - |
| 1788583332 | 21.11° C | 34% | 1024.3 hPa | - | - | - | - |
| 1788582731 | 21.11° C | 34% | 1024.4 hPa | - | - | - | - |
| 1788582131 | 21.11° C | 34% | 1024.4 hPa | - | - | - | - |
| 1788581533 | 20.56° C | 36% | 1024.4 hPa | - | - | - | - |
| 1788580786 | 21.11° C | 35% | 1024.4 hPa | - | - | - | - |
| 1788580186 | 21.67° C | 34% | 1024.4 hPa | - | - | - | - |
| 1788579585 | 21.11° C | 35% | 1024.4 hPa | - | - | - | - |
| 1788578985 | 21.11° C | 36% | 1024.3 hPa | - | - | - | - |
| 1788578385 | 21.11° C | 36% | 1024.3 hPa | - | - | - | - |
| 1788577786 | 21.11° C | 36% | 1024.3 hPa | - | - | - | - |
| 1788577186 | 21.67° C | 35% | 1024.3 hPa | - | - | - | - |
| 1788576586 | 21.11° C | 35% | 1024.4 hPa | - | - | - | - |
| 1788575985 | 21.67° C | 35% | 1024.3 hPa | - | - | - | - |
| 1788575385 | 21.67° C | 35% | 1024.3 hPa | - | - | - | - |
| 1788574785 | 22.78° C | 32% | 1024.3 hPa | - | - | - | - |
| 1788574185 | 23.33° C | 30% | 1024.2 hPa | - | - | - | - |
| 1788573586 | 23.33° C | 30% | 1024.4 hPa | - | - | - | - |
| 1788572986 | 23.33° C | 30% | 1024.3 hPa | - | - | - | - |
| 1788572384 | 23.89° C | 29% | 1024.3 hPa | - | - | - | - |
| 1788571786 | 24.44° C | 28% | 1024.3 hPa | - | - | - | - |
| 1788571185 | 23.89° C | 29% | 1024.3 hPa | - | - | - | - |
| 1788570585 | 23.89° C | 29% | 1024.3 hPa | - | - | - | - |
| 1788569985 | 22.78° C | 31% | 1024.4 hPa | - | - | - | - |
| 1788569384 | 22.78° C | 31% | 1024.5 hPa | - | - | - | - |
* Rain since midnight (hover to see other rain measurements)
** Current wind speed in m/s (hover to see current wind gust speed)